FALCON 9 R/B

基本信息
目录编号:
40426
目录名称:
FALCON 9 R/B
国际标识:
2015-010C
轨道中心:
EARTH
物体状态:
已陨落(2023-12-19)
发射日期:
2015-03-02 UTC
国别:
美国 (US)
轨道信息
数据来源: 国际轨道数据
星历时间: 2023-12-18T19:11:53+0800
半长轴: 9076.489km
偏心率: 0.2828704
轨道倾角: 21.229°
近地点辐角: 73.669°
升交点赤经: 188.919°
平近点角: 62.696°
近地点: 130.883km
远地点: 5265.825km
周期: 143.429分钟
每日圈数: 10.039821
详细信息
发射场:
AFETR
轨道高度:
LEO
数据来源:
AOE Integration Group
参考系:
TEME
时间系统:
UTC
历元类型:
SGP4
2D轨道图
3D轨道图
轨道高度分析图
轨道倾角分析图
轨道综合分析图
查看轨道综合分析图